Flag for Switzerland Weather past 2 weeks in Solothurn, Solothurn, Switzerland

Now
66 °F

Mild.


Feels Like: 66 °F
Forecast: 55 / 67 °F
Wind: 20 mph from West

Location: Grenchen

Current Time: Sep 1, 2015 at 5:05:32 PM

Latest Report: Sep 1, 2015 at 4:00 PM


Visibility: N/A

Pressure: 29.94 "Hg

Humidity: 78%

Dew point: 59 °F

Location of SolothurnLocation

Historic Weather in Solothurn — Graph

°F

Solothurn temperature yesterday

Maximum temperature yesterday: 88 °F (at 5:00 PM)
Minimum temperature yesterday: 62 °F (at 4:00 AM)
Average temperature yesterday: 74 °F

Past Weeks' High & Low Weather Summary

 TemperatureHumidityPressure
High90 °F (Aug 30, 4:00 PM)100% (Aug 26, 6:00 AM)30.27 "Hg (Aug 26, 6:00 AM)
Low47 °F (Aug 26, 6:00 AM)29% (Aug 30, 6:00 PM)29.73 "Hg (Aug 24, 7:00 AM)
Average66 °F70%30.03 "Hg
* Reported Aug 17 3:00 PM — Sep 1 3:00 PM, Solothurn, Weather by CustomWeather, © 2015

Note: Actual official high and low records may vary slightly from our data, if they occured in-between our weather recording intervals... More about our weather records

Advertising

Solothurn weather history for previous 24 hours

 ConditionsComfort  
Time TempWeatherWind HumidityBarometerVisibility
3:00 PM
Tue, Sep 1
71 °FMild.22 mph67%29.91 "HgN/A
2:00 PM73 °FMild.18 mph61%29.89 "HgN/A
1:00 PM73 °FMild.17 mph60%29.89 "HgN/A
12:00 PM74 °FMild.14 mph61%29.88 "HgN/A
11:00 AM70 °FMild.1 mph77%29.89 "HgN/A
10:00 AM67 °FMild.3 mph90%29.88 "HgN/A
9:00 AM65 °FMild.3 mph95%29.88 "HgN/A
8:00 AM65 °FMild.1 mph93%29.85 "HgN/A
7:00 AM62 °FCool.2 mph96%29.87 "HgN/A
6:00 AM64 °FMild.3 mph94%29.89 "HgN/A
4:00 AM65 °FMild.2 mph84%29.90 "HgN/A
3:00 AM64 °FMild.2 mph85%29.92 "HgN/A
2:00 AM64 °FMild.1 mph82%29.93 "HgN/A
1:00 AM65 °FMild.1 mph79%29.93 "HgN/A
12:00 AM67 °FMild.No wind72%29.92 "HgN/A
10:00 PM
Mon, Aug 31
74 °FMild.2 mph56%29.90 "HgN/A
9:00 PM75 °FMild.3 mph54%29.89 "HgN/A
8:00 PM80 °FWarm.6 mph42%29.88 "HgN/A
7:00 PM85 °FPleasantly warm.13 mph34%29.87 "HgN/A
6:00 PM87 °FPleasantly warm.18 mph30%29.86 "HgN/A
5:00 PM88 °FPleasantly warm.17 mph29%29.87 "HgN/A
Weather by CustomWeather, © 2015

See weather overviewHow to use our weather pages